Yates Lake Weather Center

Moon Phase Calendar



Yates Lake Water Level
Online Cameras

 


      

Current Conditions in Tallassee
6/21/2024 3:28:36 AM

69°F
Feels Like 68
Clear
Humidity
68%
Pressure
30.18"
Wind
4.9 mph (ENE)
Dew Point
58°F
UV Index
0/10 (Low)
Visibility
6 mi

Hourly Forecast

Date & Time Fri, Jun 21
3:00 AM
Fri, Jun 21
4:00 AM
Fri, Jun 21
5:00 AM
Fri, Jun 21
6:00 AM
Fri, Jun 21
7:00 AM
Fri, Jun 21
8:00 AM
Fri, Jun 21
9:00 AM
Fri, Jun 21
10:00 AM
Fri, Jun 21
11:00 AM
Fri, Jun 21
12:00 PM
Fri, Jun 21
1:00 PM
Fri, Jun 21
2:00 PM
Fri, Jun 21
3:00 PM
Fri, Jun 21
4:00 PM
Fri, Jun 21
5:00 PM
Fri, Jun 21
6:00 PM
Fri, Jun 21
7:00 PM
Fri, Jun 21
8:00 PM
Fri, Jun 21
9:00 PM
Fri, Jun 21
10:00 PM
Fri, Jun 21
11:00 PM
Sat, Jun 22
12:00 AM
Sat, Jun 22
1:00 AM
Sat, Jun 22
2:00 AM
Sat, Jun 22
3:00 AM
Sat, Jun 22
4:00 AM
Sat, Jun 22
5:00 AM
Sat, Jun 22
6:00 AM
Sat, Jun 22
7:00 AM
Sat, Jun 22
8:00 AM
Sat, Jun 22
9:00 AM
Sat, Jun 22
10:00 AM
Sat, Jun 22
11:00 AM
Sat, Jun 22
12:00 PM
Sat, Jun 22
1:00 PM
Sat, Jun 22
2:00 PM
Sat, Jun 22
3:00 PM
Sat, Jun 22
4:00 PM
Sat, Jun 22
5:00 PM
Sat, Jun 22
6:00 PM
Sat, Jun 22
7:00 PM
Sat, Jun 22
8:00 PM
Sat, Jun 22
9:00 PM
Sat, Jun 22
10:00 PM
Sat, Jun 22
11:00 PM
Sun, Jun 23
12:00 AM
Sun, Jun 23
1:00 AM
Sun, Jun 23
2:00 AM
Condition
Clear

Clear

Clear

Clear

Clear

Clear

Clear

Clear

Clear

Clear

Clear

Clear

Clear

Clear

Clear

Clear

Clear

Clear

Clear

Clear

Clouds

Clouds

Clouds

Clouds

Clouds

Clouds

Clouds

Clouds

Clouds

Clouds

Clouds

Clouds

Clouds

Clouds

Clouds

Clouds

Clouds

Clouds

Clouds

Clouds

Clouds

Clouds

Clouds

Clouds

Clouds

Clouds

Clouds

Clouds
Temperature 69°F68°F68°F68°F70°F76°F80°F84°F87°F90°F92°F94°F95°F95°F95°F93°F87°F81°F79°F77°F75°F73°F72°F71°F70°F70°F69°F69°F73°F79°F84°F89°F93°F96°F98°F99°F99°F98°F97°F96°F88°F85°F82°F80°F80°F79°F77°F76°F
Feels Like 68°F68°F68°F67°F70°F76°F82°F85°F88°F90°F92°F93°F94°F94°F93°F92°F87°F82°F79°F77°F75°F73°F72°F71°F70°F69°F69°F69°F73°F79°F86°F91°F96°F98°F100°F100°F99°F98°F97°F95°F89°F85°F82°F81°F80°F79°F77°F76°F
Cloudiness 0%0%0%0%0%0%0%0%0%0%0%0%0%0%0%0%0%1%0%0%29%27%25%51%40%26%32%45%57%28%71%83%87%90%81%42%38%35%24%21%33%72%62%70%71%78%81%100%
Visibility 6 mi6 mi6 mi6 mi6 mi6 mi6 mi6 mi6 mi6 mi6 mi6 mi6 mi6 mi6 mi6 mi6 mi6 mi6 mi6 mi6 mi6 mi6 mi6 mi6 mi6 mi6 mi6 mi6 mi6 mi6 mi6 mi6 mi6 mi6 mi6 mi6 mi6 mi6 mi6 mi6 mi6 mi6 mi6 mi6 mi6 mi6 mi6 mi
Precipitation 0%0%0%0%0%0%0%0%0%0%0%0%0%0%0%0%0%0%0%0%0%0%0%0%0%0%0%0%0%0%0%0%0%0%0%0%0%0%0%0%0%0%0%0%0%0%0%0%
Humidity 68%69%70%73%72%63%57%49%42%37%33%30%28%27%27%32%45%49%50%51%56%61%62%63%63%63%64%66%64%55%51%47%40%34%30%28%27%26%27%30%43%45%46%50%52%53%56%57%
Dew Point 58°F58°F58°F59°F61°F62°F64°F63°F61°F61°F59°F58°F57°F56°F56°F59°F63°F60°F59°F58°F58°F59°F59°F58°F57°F57°F56°F57°F60°F62°F64°F66°F65°F63°F62°F61°F60°F58°F58°F59°F63°F61°F60°F60°F61°F60°F60°F60°F
Pressure 30.18"30.18"30.18"30.21"30.21"30.24"30.24"30.21"30.18"30.15"30.12"30.09"30.06"30.03"30.03"30.03"30.03"30.06"30.06"30.06"30.09"30.09"30.09"30.09"30.09"30.09"30.09"30.09"30.09"30.09"30.09"30.09"30.06"30.06"30.03"30"29.97"29.94"29.91"29.91"29.91"29.94"29.94"29.94"29.97"29.97"29.97"29.97"
Wind Speed 4.9 mph4.6 mph4.7 mph4.7 mph4.3 mph4.5 mph4.6 mph5.3 mph5.9 mph6.1 mph5.6 mph5.2 mph5.3 mph5.7 mph6.1 mph5.5 mph4.5 mph4.8 mph4.8 mph4.2 mph4.9 mph3 mph1.9 mph2.5 mph1.8 mph2.9 mph2.8 mph2.4 mph2.9 mph2.4 mph2.2 mph2.1 mph1.5 mph1.4 mph1.2 mph0.6 mph0.2 mph0.6 mph0.8 mph1.4 mph2.7 mph4.8 mph3 mph2.3 mph1.1 mph0.6 mph1 mph2.4 mph
Wind
Direction
63°
ENE
74°
ENE
66°
ENE
68°
ENE
60°
ENE
68°
ENE
67°
ENE
74°
ENE
73°
ENE
73°
ENE
74°
ENE
73°
ENE
70°
ENE
68°
ENE
67°
ENE
65°
ENE
51°
NE
48°
NE
53°
NE
88°
E
125°
SE
145°
SE
156°
SSE
139°
SE
96°
E
75°
ENE
67°
ENE
80°
E
78°
ENE
76°
ENE
97°
E
112°
ESE
105°
ESE
42°
NE
43°
NE
40°
NE
124°
SE
188°
S
243°
WSW
262°
W
288°
WNW
294°
WNW
326°
NW
50°
NE
95°
E
268°
W
286°
WNW
264°
W

Daily Forecast

Date High Low Precip. Humidity
Today
Jun 21

Clear
95 °F
68 °F
0%
37%
Saturday
Jun 22

Clouds
99 °F
69 °F
0%
34%
Sunday
Jun 23

Clouds
100 °F
73 °F
0%
29%
Monday
Jun 24

Clouds
99 °F
73 °F
0%
30%
Tuesday
Jun 25

Rain
99 °F
73 °F
100%
35%
Wednesday
Jun 26

Rain
91 °F
71 °F
100%
53%
Thursday
Jun 27

Rain
95 °F
72 °F
100%
41%
Friday
Jun 28

Clouds
97 °F
69 °F
0%
37%
Saturday
Jun 29

Rain
93 °F
72 °F
100%
45%
Sunday
Jun 30

Rain
99 °F
73 °F
100%
38%
Monday
Jul 1

Rain
97 °F
71 °F
100%
41%
Tuesday
Jul 2

Rain
96 °F
72 °F
100%
39%
Wednesday
Jul 3

Rain
94 °F
72 °F
100%
44%
Thursday
Jul 4

Rain
97 °F
73 °F
100%
39%
Friday
Jul 5

Rain
97 °F
76 °F
65%
40%
Saturday
Jul 6

Rain
99 °F
75 °F
22%
37%

Temperature 8-14 Day Outlook



Precipitation 8-14 Day Outlook






About Us
Contact Us
Site Map
Search Site
Advertise With Us
   
Yates.USLakes.info
THE YATES LAKE WEBSITE

Copyright 2024, Lakes Online
Privacy    |    Legal